Location: Mascot Post Office (historical)
(40.2645°N, 99.5462°W)
Time: 02:44:03
(UTC+00:00)

Cosmos 1709 Rocket - Pass Details

Date: 14 July 2020
Orbit: 948 x 1002 km, 82.9° (Epoch: 14 August)

Event Time Altitude Azimuth Distance (km) Brightness Sun altitude
Rises 03:11:08 0° 192° (SSW) 3,681 6.7 -10.7°
Reaches altitude 10° 03:13:39 10° 195° (SSW) 2,743 6.1 -11.1°
Maximum altitude 03:19:56 69° 279° (W) 1,062 4.4 -12.0°
Drops below altitude 10° 03:26:19 10° 2° (N) 2,781 7.0 -12.9°
Sets 03:28:53 0° 5° (N) 3,736 7.6 -13.2°
